Location: Buch
(50.1863°N, 11.0141°E)
Time: 18:44:51
(UTC+00:00)

Cosmos 1825 Rocket - Pass Details

Date: 18 January 2020
Orbit: 604 x 631 km, 82.5° (Epoch: 15 February)

Event Time Altitude Azimuth Distance (km) Brightness Sun altitude
Exits shadow 06:00:02 - 334° (NNW) 2,337 6.1 -10.5°
Reaches altitude 10° 06:01:05 10° 328° (NNW) 1,962 5.7 -10.4°
Maximum altitude 06:04:41 26° 272° (W) 1,199 4.5 -9.8°
Drops below altitude 10° 06:08:17 10° 215° (SW) 1,953 6.0 -9.3°
Sets 06:10:45 0° 203° (SSW) 2,854 7.0 -8.9°
